Date String (YYYY-MM-DD hh:mm:ss) UTC,Instrument flags,absolute air pressure of the measurement (hPa),sample flow rate (lpm),inlet stack bypass flow (lpm),air temperature of the measurement (°C),ambient temperature measured by the external sensor (°C),aerosol sample conditioner tube jacket temperature (°C),OPC LED temperature (°C),internal box temperature (°C),relative humidity of the measurement (%),span deviation,mass concentration of particles derived from Lorenz-Mie calculation of OPC scattering (μg/m³),mass concentration of particles derived from Lorenz-Mie calculation of OPC scattering (μg/m³),mass concentration of particles derived from Lorenz-Mie calculation of OPC scattering (μg/m³)
DateTimeUTC,F1_M11,P_M11,Q1_M11,Q2_M11,T1_M11,T2_M11,T3_M11,T4_M11,T5_M11,U1_M11,ZSPAN_M11,X2_M11,X0_M11,X1_M11
2023-11-21 22:00:00,SystemResetWarning,0838.6,5.00,000.00,025.9,025.1,000.0,034.0,027.3,8.7,0000.0,0001.56,0008.58,0001.01
2023-11-21 22:01:00,SystemResetWarning,0838.6,5.00,000.00,025.9,025.1,000.0,034.0,027.3,8.6,0000.0,0001.60,0008.51,0001.02
2023-11-21 22:02:00,SystemResetWarning,0838.6,5.00,000.00,025.9,025.1,000.0,034.0,027.3,8.6,0000.0,0001.60,0008.49,0001.03
2023-11-21 22:03:00,SystemResetWarning,0838.6,5.00,000.00,025.9,025.1,000.0,034.1,027.3,8.6,0000.0,0001.67,0008.62,0001.05
2023-11-21 22:04:00,SystemResetWarning,0838.6,5.00,000.00,026.0,025.1,000.0,034.1,027.3,8.6,0000.0,0001.71,0008.64,0001.05
2023-11-21 22:05:00,SystemResetWarning,0838.6,5.00,000.00,026.0,025.1,000.0,034.1,027.3,8.6,0000.0,0001.72,0007.99,0001.06
2023-11-21 22:06:00,SystemResetWarning,0838.6,5.00,000.00,026.0,025.1,000.0,034.1,027.3,8.6,0000.0,0001.75,0008.21,0001.07
2023-11-21 22:07:00,SystemResetWarning,0838.6,5.00,000.00,026.0,025.1,000.0,034.1,027.3,8.6,0000.0,0001.79,0008.60,0001.07
2023-11-21 22:08:00,SystemResetWarning,0838.5,5.00,000.00,026.0,025.1,000.0,034.1,027.3,8.5,0000.0,0001.81,0008.37,0001.08
2023-11-21 22:09:00,SystemResetWarning,0838.6,5.00,000.00,026.0,025.2,000.0,034.1,027.3,8.6,0000.0,0001.80,0008.12,0001.08
2023-11-21 22:10:00,SystemResetWarning,0838.6,5.00,000.00,026.0,025.1,000.0,034.1,027.4,8.5,0000.0,0001.81,0006.74,0001.09
2023-11-21 22:11:00,SystemResetWarning,0838.6,5.00,000.00,026.0,025.1,000.0,034.1,027.3,8.5,0000.0,0001.81,0006.61,0001.08
2023-11-21 22:12:00,SystemResetWarning,0838.6,5.00,000.00,026.0,025.2,000.0,034.1,027.3,8.5,0000.0,0001.76,0006.74,0001.08
2023-11-21 22:13:00,SystemResetWarning,0838.5,5.01,000.00,026.0,025.2,000.0,034.2,027.4,8.6,0000.0,0001.79,0006.95,0001.07
2023-11-21 22:14:00,SystemResetWarning,0838.4,5.00,000.00,026.0,025.2,000.0,034.2,027.4,8.6,0000.0,0001.75,0007.09,0001.07
2023-11-21 22:15:00,SystemResetWarning,0838.4,5.00,000.00,026.0,025.2,000.0,034.2,027.4,8.6,0000.0,0001.72,0008.31,0001.08
2023-11-21 22:16:00,SystemResetWarning,0838.4,5.00,000.00,026.1,025.2,000.0,034.2,027.4,8.5,0000.0,0001.73,0008.70,0001.08
2023-11-21 22:17:00,SystemResetWarning,0838.4,5.00,000.00,026.1,025.2,000.0,034.2,027.4,8.5,0000.0,0001.69,0009.16,0001.06
2023-11-21 22:18:00,SystemResetWarning,0838.4,4.99,000.00,026.1,025.2,000.0,034.2,027.4,8.5,0000.0,0001.65,0008.64,0001.07
2023-11-21 22:19:00,SystemResetWarning,0838.4,5.00,000.00,026.1,025.2,000.0,034.2,027.4,8.5,0000.0,0001.63,0009.64,0001.07
2023-11-21 22:20:00,SystemResetWarning,0838.5,5.01,000.00,026.1,025.2,000.0,034.2,027.5,8.6,0000.0,0001.62,0009.71,0001.06
2023-11-21 22:21:00,SystemResetWarning,0838.5,5.00,000.00,026.1,025.2,000.0,034.3,027.5,8.6,0000.0,0001.60,0009.95,0001.05
2023-11-21 22:22:00,SystemResetWarning,0838.6,5.00,000.00,026.1,025.2,000.0,034.3,027.5,8.6,0000.0,0001.57,0010.23,0001.06
2023-11-21 22:23:00,SystemResetWarning,0838.6,5.00,000.00,026.1,025.3,000.0,034.3,027.5,8.6,0000.0,0001.58,0010.14,0001.08
2023-11-21 22:24:00,SystemResetWarning,0838.6,5.00,000.00,026.1,025.3,000.0,034.3,027.5,8.5,0000.0,0001.56,0010.18,0001.08
2023-11-21 22:25:00,SystemResetWarning,0838.6,4.99,000.00,026.2,025.3,000.0,034.3,027.5,8.5,0000.0,0001.50,0010.75,0001.09
2023-11-21 22:26:00,SystemResetWarning,0838.6,4.99,000.00,026.2,025.3,000.0,034.3,027.5,8.6,0000.0,0001.52,0009.90,0001.11
2023-11-21 22:27:00,SystemResetWarning,0838.6,4.99,000.00,026.2,025.3,000.0,034.3,027.5,8.6,0000.0,0001.50,0009.20,0001.11
2023-11-21 22:28:00,SystemResetWarning,0838.6,5.00,000.00,026.2,025.3,000.0,034.3,027.6,8.4,0000.0,0001.50,0009.05,0001.12
2023-11-21 22:29:00,SystemResetWarning,0838.6,5.00,000.00,026.2,025.4,000.0,034.3,027.6,8.4,0000.0,0001.54,0009.69,0001.12
2023-11-21 22:30:00,SystemResetWarning,0838.6,5.00,000.00,026.2,025.4,000.0,034.3,027.6,8.4,0000.0,0001.52,0008.85,0001.12
2023-11-21 22:31:00,SystemResetWarning,0838.6,5.00,000.00,026.2,025.3,000.0,034.3,027.6,8.4,0000.0,0001.53,0008.35,0001.13
2023-11-21 22:32:00,SystemResetWarning,0838.6,5.00,000.00,026.2,025.3,000.0,034.4,027.5,8.4,0000.0,0001.54,0008.20,0001.13
2023-11-21 22:33:00,SystemResetWarning,0838.6,5.01,000.00,026.2,025.3,000.0,034.4,027.6,8.4,0000.0,0001.57,0008.07,0001.13
2023-11-21 22:34:00,SystemResetWarning,0838.6,5.00,000.00,026.2,025.3,000.0,034.4,027.6,8.4,0000.0,0001.62,0008.87,0001.13
2023-11-21 22:35:00,SystemResetWarning,0838.6,5.00,000.00,026.2,025.3,000.0,034.4,027.6,8.4,0000.0,0001.69,0008.98,0001.13
2023-11-21 22:36:00,SystemResetWarning,0838.6,5.00,000.00,026.2,025.4,000.0,034.4,027.6,8.4,0000.0,0001.74,0008.46,0001.14
2023-11-21 22:37:00,SystemResetWarning,0838.6,4.99,000.00,026.2,025.4,000.0,034.4,027.6,8.4,0000.0,0001.72,0008.56,0001.13
2023-11-21 22:38:00,SystemResetWarning,0838.6,4.99,000.00,026.3,025.4,000.0,034.4,027.6,8.4,0000.0,0001.70,0008.62,0001.13
2023-11-21 22:39:00,SystemResetWarning,0838.6,5.00,000.00,026.3,025.4,000.0,034.4,027.6,8.4,0000.0,0001.74,0008.43,0001.14
2023-11-21 22:40:00,SystemResetWarning,0838.6,5.00,000.00,026.3,025.4,000.0,034.4,027.6,8.4,0000.0,0001.72,0007.42,0001.15
2023-11-21 22:41:00,SystemResetWarning,0838.6,5.00,000.00,026.3,025.4,000.0,034.4,027.6,8.4,0000.0,0001.76,0006.91,0001.16
2023-11-21 22:42:00,SystemResetWarning,0838.6,5.00,000.00,026.3,025.3,000.0,034.4,027.6,8.3,0000.0,0001.81,0006.97,0001.16
2023-11-21 22:43:00,SystemResetWarning,0838.6,5.00,000.00,026.3,025.3,000.0,034.4,027.6,8.4,0000.0,0001.82,0007.25,0001.17
2023-11-21 22:44:00,SystemResetWarning,0838.6,5.00,000.00,026.3,025.3,000.0,034.5,027.6,8.4,0000.0,0001.82,0006.79,0001.16
2023-11-21 22:45:00,SystemResetWarning,0838.6,5.00,000.00,026.3,025.3,000.0,034.5,027.6,8.4,0000.0,0001.79,0005.22,0001.17
2023-11-21 22:46:00,SystemResetWarning,0838.6,5.00,000.00,026.3,025.3,000.0,034.5,027.6,8.4,0000.0,0001.80,0004.83,0001.17
2023-11-21 22:47:00,SystemResetWarning,0838.6,5.00,000.00,026.3,025.3,000.0,034.5,027.6,8.3,0000.0,0001.79,0004.75,0001.18
2023-11-21 22:48:00,SystemResetWarning,0838.6,4.99,000.00,026.3,025.3,000.0,034.5,027.6,8.3,0000.0,0001.85,0004.00,0001.18
2023-11-21 22:49:00,SystemResetWarning,0838.6,4.99,000.00,026.3,025.3,000.0,034.5,027.6,8.3,0000.0,0001.89,0005.62,0001.18
2023-11-21 22:50:00,SystemResetWarning,0838.6,5.00,000.00,026.3,025.3,000.0,034.5,027.6,8.3,0000.0,0001.94,0006.22,0001.17
2023-11-21 22:51:00,SystemResetWarning,0838.6,5.00,000.00,026.3,025.3,000.0,034.5,027.6,8.3,0000.0,0001.99,0006.80,0001.17
2023-11-21 22:52:00,SystemResetWarning,0838.6,5.01,000.00,026.3,025.4,000.0,034.5,027.6,8.3,0000.0,0002.05,0007.15,0001.17
2023-11-21 22:53:00,SystemResetWarning,0838.6,5.00,000.00,026.3,025.4,000.0,034.5,027.6,8.4,0000.0,0002.11,0007.33,0001.17
2023-11-21 22:54:00,SystemResetWarning,0838.6,4.99,000.00,026.3,025.4,000.0,034.5,027.6,8.4,0000.0,0002.10,0007.22,0001.17
2023-11-21 22:55:00,SystemResetWarning,0838.6,4.99,000.00,026.3,025.4,000.0,034.5,027.6,8.4,0000.0,0002.14,0007.39,0001.17
2023-11-21 22:56:00,SystemResetWarning,0838.6,5.00,000.00,026.3,025.4,000.0,034.5,027.6,8.4,0000.0,0002.18,0007.55,0001.16
2023-11-21 22:57:00,SystemResetWarning,0838.6,5.00,000.00,026.3,025.4,000.0,034.5,027.6,8.4,0000.0,0002.08,0007.38,0001.15
2023-11-21 22:58:00,SystemResetWarning,0838.6,5.00,000.00,026.3,025.4,000.0,034.5,027.6,8.4,0000.0,0002.04,0007.78,0001.13
2023-11-21 22:59:00,SystemResetWarning,0838.6,5.00,000.00,026.3,025.4,000.0,034.5,027.7,8.4,0000.0,0002.01,0008.17,0001.11
